Location: Ajisawe
(8.4333°N, 4.3833°E)
Time: 21:55:35
(UTC+00:00)

Vanguard 2 Rocket - Pass Details

Date: 26 April 2021
Orbit: 554 x 3326 km, 32.9° (Epoch: 16 May)

Event Time Altitude Azimuth Distance (km) Brightness Sun altitude
Rises 12:59:25 0° 291° (WNW) 6,027 11.4 69.9°
Reaches altitude 10° 13:03:52 10° 302° (WNW) 5,383 11.3 68.8°
Maximum altitude 13:18:29 31° 359° (N) 4,610 11.0 65.3°
Drops below altitude 10° 13:35:20 10° 55° (NE) 6,173 11.0 61.3°
Sets 13:41:00 0° 65° (ENE) 6,993 11.2 59.9°
